Weather History for KDYS - November, 2013

Change the Weather History Date:

Tuesday, November 26, 2013

  Actual Average Record
Temperature  
Mean Temperature 40 °F -  
Max Temperature 48 °F 61 °F 75 °F (2003)
Min Temperature 32 °F 41 °F 23 °F (2010)
Degree Days  
Heating Degree Days 25    
Moisture  
Dew Point 30 °F    
Average Humidity 82    
Maximum Humidity 100    
Minimum Humidity 43    
Precipitation  
Precipitation 0.00 in - - ()
Sea Level Pressure  
Sea Level Pressure 30.27 in    
Wind  
Wind Speed 14 mph (North)    
Max Wind Speed 23 mph    
Max Gust Speed 30 mph    
Visibility 10 miles    
Events Rain , Snow    
Averages and records for this station are not official NWS values.
T = Trace of Precipitation, MM = Missing Value Source: NWS Daily Summary

Daily Weather History Graph

Daily Weather History Graph

Search for Another Location

Airport or City:

Trip Planner

Search our weather history database for the weather conditions in past years. The results will help you decide how hot, cold, wet, or windy it might be!

Date:

Astronomy

Nov. 26, 2013 Rise Set
Actual Time 7:18 AM CST 5:34 PM CST
Civil Twilight 6:52 AM CST 6:01 PM CST
Nautical Twilight 6:22 AM CST 6:31 PM CST
Astronomical Twilight 5:52 AM CST 7:00 PM CST
Moon 12:45 AM CST (11/26) 1:22 PM CST (11/26)
Length of Visible Light 11h 08m
Length of Day
10h 15m
Last Quarter, 41% of the Moon is Illuminated
Nov 26
Last Quarter
Dec 2
New
Dec 9
First Quarter
Dec 17
Full
Dec 25
Last Quarter

Hourly Weather History & Observations

Time (CST) Temp. Windchill Dew Point Humidity Pressure Visibility Wind Dir Wind Speed Gust Speed Precip Events Conditions
12:03 AM 33.8 °F 25.8 °F 32.0 °F 93% 30.20 in 10.0 mi NNE 10.4 mph - N/A   Overcast
12:13 AM 33.8 °F 25.8 °F 32.0 °F 93% 30.20 in 10.0 mi NNE 10.4 mph - N/A   Overcast
12:24 AM 33.8 °F 23.9 °F 32.0 °F 93% 30.21 in 10.0 mi NNE 15.0 mph - N/A Rain Light Rain
12:34 AM 33.8 °F 24.8 °F 32.0 °F 93% 30.22 in 10.0 mi NNE 12.7 mph - N/A Rain Light Rain
12:49 AM 32.0 °F 22.5 °F 32.0 °F 100% 30.22 in 10.0 mi NNE 12.7 mph - N/A Rain Light Rain
12:53 AM 32.0 °F 22.1 °F 32.0 °F 100% 30.22 in 10.0 mi NNE 13.8 mph - N/A   Mostly Cloudy
12:58 AM 33.6 °F 25.6 °F 31.8 °F 93% 30.26 in 10.0 mi NNE 10.4 mph - 0.00 in   Mostly Cloudy
1:18 AM 32.0 °F 23.0 °F 32.0 °F 100% 30.21 in 10.0 mi North 11.5 mph - N/A   Mostly Cloudy
1:23 AM 32.0 °F 22.5 °F 32.0 °F 100% 30.21 in 10.0 mi North 12.7 mph - N/A   Mostly Cloudy
1:28 AM 32.0 °F 22.1 °F 32.0 °F 100% 30.21 in 10.0 mi North 13.8 mph - N/A   Mostly Cloudy
1:53 AM 32.0 °F 22.5 °F 30.2 °F 93% 30.22 in 10.0 mi North 12.7 mph - N/A   Mostly Cloudy
1:58 AM 32.0 °F 22.1 °F 32.0 °F 100% 30.25 in 10.0 mi North 13.8 mph - N/A   Mostly Cloudy
2:03 AM 32.0 °F 22.1 °F 30.2 °F 93% 30.22 in 10.0 mi North 13.8 mph - N/A   Mostly Cloudy
2:13 AM 32.0 °F 22.1 °F 30.2 °F 93% 30.22 in 10.0 mi North 13.8 mph - N/A   Mostly Cloudy
2:18 AM 32.0 °F 21.6 °F 30.2 °F 93% 30.22 in 10.0 mi North 15.0 mph - N/A   Mostly Cloudy
2:23 AM 32.0 °F 20.5 °F 30.2 °F 93% 30.22 in 10.0 mi North 18.4 mph 20.7 mph N/A   Mostly Cloudy
2:28 AM 32.0 °F 20.5 °F 30.2 °F 93% 30.22 in 10.0 mi North 18.4 mph - N/A   Overcast
2:32 AM 32.0 °F 21.2 °F 30.2 °F 93% 30.21 in 10.0 mi North 16.1 mph - N/A Snow Light Snow
2:44 AM 32.0 °F 20.8 °F 30.2 °F 93% 30.21 in 8.0 mi North 17.3 mph 24.2 mph N/A   Mostly Cloudy
2:47 AM 32.0 °F 20.8 °F 30.2 °F 93% 30.21 in 8.0 mi North 17.3 mph 24.2 mph N/A   Overcast
2:57 AM 32.9 °F 22.8 °F 29.5 °F 87% 30.25 in 10.0 mi North 15.0 mph - 0.00 in   Overcast
3:25 AM 32.0 °F 19.8 °F 28.4 °F 87% 30.21 in 10.0 mi North 20.7 mph 24.2 mph N/A   Mostly Cloudy
3:58 AM 33.1 °F 22.2 °F 28.4 °F 83% 30.25 in 10.0 mi North 17.3 mph 25.3 mph 0.00 in   Overcast
4:13 AM 32.0 °F 21.2 °F 28.4 °F 87% 30.22 in 10.0 mi North 16.1 mph - N/A   Overcast
4:33 AM 32.0 °F 22.5 °F 30.2 °F 93% 30.22 in 10.0 mi North 12.7 mph - N/A   Overcast
4:38 AM 32.0 °F 22.5 °F 28.4 °F 87% 30.22 in 10.0 mi North 12.7 mph - N/A   Overcast
4:58 AM 33.4 °F 23.9 °F 29.5 °F 85% 30.28 in 10.0 mi North 13.8 mph - N/A   Overcast
5:28 AM 33.8 °F 24.3 °F 28.4 °F 81% 30.23 in 10.0 mi North 13.8 mph - N/A   Overcast
5:58 AM 33.8 °F 24.3 °F 28.4 °F 81% 30.27 in 10.0 mi North 13.8 mph - N/A   Overcast
6:13 AM 33.8 °F 24.3 °F 28.4 °F 81% 30.24 in 10.0 mi North 13.8 mph - N/A   Overcast
6:58 AM 33.8 °F 25.3 °F 28.4 °F 81% 30.29 in 10.0 mi North 11.5 mph - N/A   Overcast
7:58 AM 34.9 °F 25.7 °F 29.7 °F 81% 30.32 in 10.0 mi NNW 13.8 mph - N/A   Overcast
8:38 AM 35.6 °F 25.9 °F 30.2 °F 81% 30.28 in 10.0 mi NNW 16.1 mph - N/A   Scattered Clouds
8:58 AM 36.1 °F 26.5 °F 29.1 °F 76% 30.33 in 10.0 mi North 16.1 mph - N/A   Clear
9:58 AM 38.1 °F 27.9 °F 30.0 °F 73% 30.33 in 10.0 mi NNW 20.7 mph - N/A   Clear
10:58 AM 41.2 °F 31.9 °F 31.1 °F 67% 30.33 in 10.0 mi North 20.7 mph 25.3 mph N/A   Clear
11:58 AM 43.9 °F 35.2 °F 30.7 °F 60% 30.34 in 10.0 mi North 21.9 mph - N/A   Clear
12:58 PM 44.6 °F 36.6 °F 30.2 °F 57% 30.34 in 10.0 mi North 19.6 mph 29.9 mph N/A   Clear
1:58 PM 44.6 °F 36.1 °F 30.2 °F 57% 30.30 in 10.0 mi North 21.9 mph 28.8 mph N/A   Clear
3:55 PM 48.7 °F - 26.8 °F 43% 30.31 in 10.0 mi North 23.0 mph 27.6 mph N/A   Clear
4:55 PM 47.5 °F - 27.0 °F 45% 30.32 in 10.0 mi North 16.1 mph - N/A   Clear
5:55 PM 44.4 °F 38.2 °F 27.5 °F 52% 30.34 in 10.0 mi North 12.7 mph - N/A   Clear
6:55 PM 41.2 °F 35.5 °F 28.4 °F 60% 30.36 in 10.0 mi North 9.2 mph - N/A   Clear
7:55 PM 40.3 °F 34.4 °F 28.6 °F 63% 30.39 in 10.0 mi NNW 9.2 mph - N/A   Clear
8:55 PM 37.4 °F 31.4 °F 29.1 °F 72% 30.40 in 10.0 mi NNW 8.1 mph - N/A   Clear
9:58 PM 35.8 °F 29.4 °F 28.2 °F 74% 30.43 in 10.0 mi NW 8.1 mph - N/A   Clear
10:58 PM 34.2 °F 29.0 °F 28.0 °F 78% 30.45 in 10.0 mi NW 5.8 mph - N/A   Clear
11:58 PM 34.5 °F 27.3 °F 27.7 °F 76% 30.44 in 10.0 mi North 9.2 mph - N/A   Clear